Location: Namasale
(1.5000°N, 32.6167°E)
Time: 18:12:43
(UTC+00:00)

Vanguard 1 Rocket - Pass Details

Date: 22 April 2021
Orbit: 652 x 4224 km, 34.3° (Epoch: 09 May)

Event Time Altitude Azimuth Distance (km) Brightness Sun altitude
Rises 20:02:50 0° 281° (WNW) 4,429 11.3 -60.4°
Reaches altitude 10° 20:05:28 10° 273° (W) 3,793 10.8 -61.0°
Enters shadow 20:06:28 14° 270° (W) 3,588 10.6 -61.2°
Maximum altitude 20:15:14 41° 206° (SSW) 3,150 - -63.1°
Drops below altitude 10° 20:33:09 10° 142° (SE) 6,706 - -66.8°
Sets 20:40:01 0° 136° (SE) 8,135 - -68.1°
